Location: Kergrach
(48.3833°N, 4.5167°W)
Time: 16:59:26
(UTC+00:00)

Cosmos 1633 Rocket - Pass Details

Date: 18 February 2020
Orbit: 608 x 622 km, 82.5° (Epoch: 30 March)

Event Time Altitude Azimuth Distance (km) Brightness Sun altitude
Rises 05:59:02 0° 354° (N) 2,888 6.4 -14.3°
Reaches altitude 10° 06:01:19 10° 360° (N) 1,980 5.6 -13.9°
Maximum altitude 06:05:35 51° 77° (ENE) 777 4.0 -13.2°
Drops below altitude 10° 06:09:51 10° 153° (SSE) 1,973 6.1 -12.5°
Sets 06:12:07 0° 159° (SSE) 2,876 6.8 -12.1°
